Home   Weather   Riverside   Past weeks
Flag for USA

Past Weather in Riverside, California, USA — Yesterday and Last 2 Weeks

Now
93 °F

Sunny.


Feels Like: 89 °F
Forecast: 89 / 52 °F
Wind: No wind

Location: Riverside Municipal Airport

Current Time: Oct 15, 2019 at 4:49:19 pm

Latest Report: Oct 15, 2019 at 3:53 pm


Visibility: 10 mi

Pressure: 29.85 "Hg

Humidity: 12%

Dew Point: 34 °F

Location of RiversideLocation

Past Weather in Riverside — Graph

°F

Riverside Temperature Yesterday

Maximum temperature yesterday: 77 °F (at 2:53 pm)
Minimum temperature yesterday: 57 °F (at 12:53 am)
Average temperature yesterday: 65 °F

High & Low Weather Summary for the Past Weeks

 TemperatureHumidityPressure
High97 °F (Oct 6, 2:53 pm)90% (Oct 9, 8:18 am)30.02 "Hg (Oct 9, 8:18 am)
Low50 °F (Oct 1, 6:53 am)4% (Oct 10, 2:55 pm)29.73 "Hg (Oct 9, 3:53 pm)
Average68 °F43%29.88 "Hg
* Reported Sep 30 2:53 pm — Oct 15 2:53 pm, Riverside. Weather by CustomWeather, © 2019

Note: Actual official high and low records may vary slightly from our data, if they occured in-between our weather recording intervals... More about our weather records

Advertising

Riverside Weather History for the Previous 24 Hours

Scroll right to see more
 ConditionsComfort  
Time TempWeatherWind HumidityBarometerVisibility
2:53 pm
Tue, Oct 15
92 °FSunny.No wind13%29.87 "Hg10 mi
1:53 pm91 °FSunny.5 mph10%29.90 "Hg10 mi
12:53 pm90 °FSunny.No wind13%29.93 "Hg10 mi
11:53 am84 °FSunny.3 mph26%29.95 "Hg10 mi
10:53 am76 °FSunny.No wind42%29.98 "Hg10 mi
9:53 am68 °FSunny.No wind55%30.00 "Hg7 mi
8:53 am61 °FSunny.No wind65%30.00 "Hg7 mi
7:53 am56 °FSunny.3 mph75%29.99 "Hg8 mi
6:53 am51 °FClear.5 mph86%29.97 "Hg9 mi
5:53 am52 °FClear.3 mph86%29.96 "Hg9 mi
4:53 am52 °FClear.3 mph89%29.94 "Hg8 mi
3:53 am54 °FClear.5 mph86%29.93 "Hg9 mi
2:53 am55 °FClear.No wind87%29.94 "Hg9 mi
1:53 am57 °FClear.No wind81%29.95 "Hg10 mi
12:53 am58 °FClear.No wind81%29.94 "Hg10 mi
11:53 pm
Mon, Oct 14
59 °FClear.No wind81%29.95 "Hg10 mi
10:53 pm61 °FClear.No wind78%29.95 "Hg10 mi
9:53 pm62 °FClear.No wind75%29.93 "Hg10 mi
8:53 pm63 °FClear.7 mph73%29.92 "Hg10 mi
7:53 pm64 °FClear.7 mph70%29.90 "Hg10 mi
6:53 pm67 °FClear.9 mph63%29.88 "Hg10 mi
5:53 pm71 °FSunny.10 mph53%29.86 "Hg10 mi
4:53 pm76 °FSunny.10 mph39%29.85 "Hg10 mi
Weather by CustomWeather, © 2019

See weather overview